Regional Weather Roundup
Issued by NWS

Home | Current Version | Previous Version | Graphics & Text | Print | Product List | Glossary On
Versions: 1 2 3 4 5 6 7 8 9 10 11 12 13 14 15 16 17 18 19 20 21 22 23 24 25 26 27 28 29 30 31 32 33 34 35 36 37 38 39 40 41 42 43 44 45 46 47 48 49 50
000
ASUS43 KIND 061209
RWRIN

WEATHER ROUNDUP FOR INDIANA
NATIONAL WEATHER SERVICE INDIANAPOLIS IN
800 AM EDT WED MAY 06 2015

NOTE: "FAIR" INDICATES FEW OR NO CLOUDS BELOW 12,000 FEET WITH NO
SIGNIFICANT WEATHER AND/OR OBSTRUCTIONS TO VISIBILITY.

* - STATION DOES NOT REPORT WEATHER SUCH AS PRECIPITATION OR FOG.

+ - STATION NOT QUALITY CONTROLLED BY THE NATIONAL WEATHER SERVICE.
    USE DATA WITH CAUTION...ESPECIALLY DEWPOINT AND RELATIVE
    HUMIDITY OBSERVATIONS.

INZ001>003-010>013-019-020-061300-
NORTHWEST INDIANA

CITY           SKY/WX    TMP DP  RH WIND       PRES   REMARKS
GARY /AIRPORT/ FOG       54 N/A N/A CALM      30.18S VSB 1
KNOX *+        CLOUDY    54  50  87 E8        30.20R VSB 3/4
LA PORTE +     FOG       57  57 100 E8        30.20S VSB 1
MICHIGAN CITY+ CLOUDY    55  55 100 E5        30.20R FOG
MONTICELLO +   MOSUNNY   57  56  97 E3        30.18R FOG
6HR MIN TEMP:  56; 6HR MAX TEMP:  60;

VALPARAISO     CLOUDY    55  54  96 SE6       30.20R FOG
6HR MIN TEMP:  55; 6HR MAX TEMP:  58;


$$

LMZ046-743>745-061300-
SOUTHERN LAKE MICHIGAN

STATION/POSITION TIME  TEMP    WIND        PRES    WAVE
                       AIR SEA DIR/SP/G            HT
                 (UTC) (F)     (DEG/KT/KT) (MB)    (FT)
BURNS HARBOR     1200   57     120/  8/ 11 1022.4S
MICHIGAN CITY    1200   56     100/  6/  8   N/A
5NW MICH CITY    1200   54 51  140/  4/  6   N/A     1

$$

INZ004-005-014>016-021>024-061300-
NORTH CENTRAL INDIANA

CITY           SKY/WX    TMP DP  RH WIND       PRES   REMARKS
ELKHART        CLOUDY    54  54 100 SE8       30.22R FOG
GOSHEN         FOG       54  53  97 E6        30.21R VSB 1/2
6HR MIN TEMP:  54; 6HR MAX TEMP:  55;

LOGANSPORT +   MOSUNNY   54  52  94 E7        30.20R FOG
PERU/GRISSOM   SUNNY     55  54  96 E6        30.19R FOG
6HR MIN TEMP:  53; 6HR MAX TEMP:  58;

ROCHESTER +    FOG       55 N/A N/A E8        30.21R VSB 1/4
SOUTH BEND     CLOUDY    55  53  93 E9        30.22R FOG
6HR MIN TEMP:  55; 6HR MAX TEMP:  56;

WARSAW +       FOG       52  52 100 SE6       30.22R VSB 1/2

$$

INZ006>009-017-018-025>027-061300-
NORTHEAST INDIANA

CITY           SKY/WX    TMP DP  RH WIND       PRES   REMARKS
ANGOLA *+      CLOUDY    52  39  62 SE7       30.23R VSB 1/2
AUBURN +       FOG       52  52 100 E6        30.24R VSB<1/4
FORT WAYNE     FOG       53  52  96 E7        30.23R VSB 1/2
6HR MIN TEMP:  52; 6HR MAX TEMP:  54;

HUNTINGTON +   FOG       53  52  97 E3        30.22R VSB 1/4
6HR MIN TEMP:  52; 6HR MAX TEMP:  54;


$$

INZ028-029-035-036-043>045-051>053-061300-
WEST CENTRAL INDIANA

CITY           SKY/WX    TMP DP  RH WIND       PRES   REMARKS
CRAWFORDSVL +  SUNNY     60  50  70 SE3       30.19R
6HR MIN TEMP:  54; 6HR MAX TEMP:  60;

GREENCASTLE +  SUNNY     59  52  77 S3        30.20R
LAFAYETTE      PTSUNNY   58  57  97 CALM      30.18R FOG
6HR MIN TEMP:  54; 6HR MAX TEMP:  62;

TERRE HAUTE    SUNNY     61  55  81 CALM      30.18R
6HR MIN TEMP:  54; 6HR MAX TEMP:  64;


$$

INZ030>032-037>040-046>048-054>057-064-065-061300-
CENTRAL INDIANA

CITY           SKY/WX    TMP DP  RH WIND       PRES   REMARKS
CP ATTERBURY + SUNNY     54  54 100 CALM      30.21R
COLUMBUS       SUNNY     57  54  88 CALM      30.21R
FRANKFORT +    SUNNY     59  59 100 SE5       30.21R FOG
6HR MIN TEMP:  55; 6HR MAX TEMP:  62;

GREENWOOD *+   SUNNY     64  54  68 SE3       30.21R
INDIANAPOLIS   MOSUNNY   63  55  75 SE5       30.18R
6HR MIN TEMP:  61; 6HR MAX TEMP:  67;

-EAGLE CREEK   SUNNY     60  57  89 CALM      30.19R
6HR MIN TEMP:  56; 6HR MAX TEMP:  62;

KOKOMO *+      SUNNY     55  54  94 E5        30.20R
6HR MIN TEMP:  54; 6HR MAX TEMP:  57;

MARION +       FOG       52  52  99 E5        30.21R VSB 1/4
MT COMFORT *+  SUNNY     61  52  72 S3        30.21R
SHELBYVILLE    SUNNY     63  56  78 CALM      30.20R
6HR MIN TEMP:  56; 6HR MAX TEMP:  64;

ZIONSVILLE +   SUNNY     59  56  89 CALM      30.21R FOG
6HR MIN TEMP:  56; 6HR MAX TEMP:  65;


$$

INZ033-034-041-042-049-050-058-059-061300-
EAST CENTRAL INDIANA

CITY           SKY/WX    TMP DP  RH WIND       PRES   REMARKS
MUNCIE         SUNNY     58  55  90 SE3       30.20R FOG
6HR MIN TEMP:  53; 6HR MAX TEMP:  58;


$$

INZ060-061-067>069-081>083-085>088-061300-
SOUTHWEST INDIANA

CITY           SKY/WX    TMP DP  RH WIND       PRES   REMARKS
EVANSVILLE     SUNNY     60  56  86 CALM      30.19R
6HR MIN TEMP:  57; 6HR MAX TEMP:  63;

HUNTINGBURG *+ SUNNY     57  54  88 CALM      30.20R
6HR MIN TEMP:  55; 6HR MAX TEMP:  61;

WASHINGTON +   SUNNY     60  53  79 CALM      30.19R
6HR MIN TEMP:  56; 6HR MAX TEMP:  61;


$$

INZ062-063-066-070>080-084-089>092-061300-
SOUTH CENTRAL AND SOUTHEAST INDIANA

CITY           SKY/WX    TMP DP  RH WIND       PRES   REMARKS
BLOOMINGTON    SUNNY     58  54  86 CALM      30.20R
6HR MIN TEMP:  51; 6HR MAX TEMP:  59;

MADISON *+     SUNNY     59  55  88 CALM      30.23R
NORTH VERNON + SUNNY     57  57 100 CALM      30.21R
SEYMOUR +      SUNNY     61  55  82 CALM      30.20R HAZE

$$



USA.gov is the U.S. government's official web portal to all federal, state and local government web resources and services.